Home   Weather   Imst   Past weeks

Flag for Austria Past Weather in Imst, Tyrol, Austria — Yesterday and Last 2 Weeks

Now
60 °F

Cool.


Feels Like: 60 °F
Forecast: 50 / 69 °F
Wind: No wind

Location: Landeck

Current Time: Sep 25, 2016 at 10:56:03 PM

Latest Report: Sep 25, 2016 at 10:00 PM


Visibility: N/A

Pressure: 30.13 "Hg (27.42 "Hg at 797m altitude)

Humidity: 68%

Dew Point: 50 °F

Location of ImstLocation

Past Weather in Imst — Graph

°F

Imst Temperature Yesterday

Maximum temperature yesterday: 72 °F (at 3:00 PM)
Minimum temperature yesterday: 49 °F (at 2:00 AM)
Average temperature yesterday: 58 °F

High & Low Weather Summary for the Past Weeks

 TemperatureHumidityPressure
High84 °F (Sep 14, 4:00 PM)94% (Sep 17, 7:00 AM)30.38 "Hg (Sep 17, 7:00 AM)
Low47 °F (Sep 23, 8:00 AM)28% (Sep 14, 4:00 PM)29.75 "Hg (Sep 14, 4:00 PM)
Average59 °F72%30.05 "Hg
* Reported Sep 10 9:00 PM — Sep 25 9:00 PM, Imst, Weather by CustomWeather, © 2016

Note: Actual official high and low records may vary slightly from our data, if they occured in-between our weather recording intervals... More about our weather records

Advertising

Imst Weather History for the Previous 24 Hours

Scroll right to see more
 ConditionsComfort  
Time TempWeatherWind HumidityBarometerVisibility
9:00 PM
Sun, Sep 25
62 °FCool.1 mph66%30.11 "HgN/A
8:00 PM65 °FMild.1 mph55%30.07 "HgN/A
7:00 PM67 °FMild.No wind53%30.03 "HgN/A
6:00 PM70 °FMild.1 mph47%29.99 "HgN/A
5:00 PM71 °FMild.2 mph42%29.96 "HgN/A
4:00 PM74 °FMild.3 mph36%29.95 "HgN/A
3:00 PM74 °FMild.2 mph36%29.97 "HgN/A
2:00 PM72 °FMild.No wind40%30.01 "HgN/A
1:00 PM68 °FMild.1 mph47%30.06 "HgN/A
12:00 PM65 °FMild.3 mph49%30.11 "HgN/A
11:00 AM60 °FRefreshingly cool.5 mph58%30.17 "HgN/A
10:00 AM56 °FCool.3 mph65%30.22 "HgN/A
9:00 AM51 °FCool.5 mph74%30.26 "HgN/A
8:00 AMN/APassing clouds.6 mphN/AN/A5 mi
7:00 AM49 °FCool.2 mph81%30.28 "HgN/A
6:00 AM49 °FCool.1 mph83%30.28 "HgN/A
5:00 AM50 °FCool.2 mph82%30.27 "HgN/A
4:00 AM49 °FCool.2 mph84%30.28 "HgN/A
3:00 AM49 °FCool.2 mph85%30.29 "HgN/A
2:00 AM50 °FCool.2 mph85%30.29 "HgN/A
1:00 AM51 °FCool.1 mph83%30.28 "HgN/A
12:00 AM52 °FCool.2 mph82%30.27 "HgN/A
11:00 PM
Sat, Sep 24
53 °FCool.1 mph82%30.27 "HgN/A
10:00 PM54 °FCool.1 mph81%30.26 "HgN/A
Weather by CustomWeather, © 2016

See weather overviewHow to use our weather pages